Time,TemperatureF,DewpointF,PressureIn,WindDirection,WindDirectionDegrees,WindSpeedMPH,WindSpeedGustMPH,Humidity,HourlyPrecipIn,Conditions,Clouds,dailyrainin,SoftwareType,DateUTC
2013-01-18 00:03:00,12.0,-99.9,30.33,WNW,290,8.0,17.0,-999,-99.99,,,-99.99,,2013-01-18 06:03:00,
2013-01-18 00:12:00,12.0,-99.9,30.33,WNW,290,8.0,17.0,-999,-99.99,,,-99.99,,2013-01-18 06:12:00,
2013-01-18 00:23:00,12.0,-99.9,30.33,WNW,290,8.0,17.0,-999,-99.99,,,-99.99,,2013-01-18 06:23:00,
2013-01-18 00:33:00,13.0,-99.9,30.33,WNW,300,11.0,25.0,-999,-99.99,,,-99.99,,2013-01-18 06:33:00,
2013-01-18 00:43:00,13.0,-99.9,30.33,WNW,300,11.0,25.0,-999,-99.99,,,-99.99,,2013-01-18 06:43:00,
2013-01-18 00:53:00,13.0,-99.9,30.33,WNW,300,11.0,25.0,-999,-99.99,,,-99.99,,2013-01-18 06:53:00,
2013-01-18 01:02:00,13.0,-99.9,30.34,WNW,300,11.0,18.0,-999,-99.99,,,-99.99,,2013-01-18 07:02:00,
2013-01-18 01:12:00,13.0,-99.9,30.34,WNW,300,11.0,18.0,-999,-99.99,,,-99.99,,2013-01-18 07:12:00,
2013-01-18 01:22:00,13.0,-99.9,30.34,WNW,300,11.0,18.0,-999,-99.99,,,-99.99,,2013-01-18 07:22:00,
2013-01-18 01:33:00,12.0,-99.9,30.34,WNW,290,8.0,20.0,-999,-99.99,,,-99.99,,2013-01-18 07:33:00,
2013-01-18 01:43:00,12.0,-99.9,30.34,WNW,290,8.0,20.0,-999,-99.99,,,-99.99,,2013-01-18 07:43:00,
2013-01-18 01:52:00,12.0,-99.9,30.34,WNW,290,8.0,20.0,-999,-99.99,,,-99.99,,2013-01-18 07:52:00,
2013-01-18 02:02:00,13.0,-99.9,30.34,WNW,290,11.0,18.0,-999,-99.99,,,-99.99,,2013-01-18 08:02:00,
2013-01-18 02:12:00,13.0,-99.9,30.34,WNW,290,11.0,18.0,-999,-99.99,,,-99.99,,2013-01-18 08:12:00,
2013-01-18 02:22:00,13.0,-99.9,30.34,WNW,290,11.0,18.0,-999,-99.99,,,-99.99,,2013-01-18 08:22:00,
2013-01-18 02:33:00,13.0,-99.9,30.34,WNW,300,10.0,18.0,-999,-99.99,,,-99.99,,2013-01-18 08:33:00,
2013-01-18 02:43:00,13.0,-99.9,30.34,WNW,300,10.0,18.0,-999,-99.99,,,-99.99,,2013-01-18 08:43:00,
2013-01-18 02:53:00,13.0,-99.9,30.34,WNW,300,10.0,18.0,-999,-99.99,,,-99.99,,2013-01-18 08:53:00,
2013-01-18 03:03:00,13.0,-99.9,30.35,WNW,290,7.0,14.0,-999,-99.99,,,-99.99,,2013-01-18 09:03:00,
2013-01-18 03:12:00,13.0,-99.9,30.35,WNW,290,7.0,14.0,-999,-99.99,,,-99.99,,2013-01-18 09:12:00,
2013-01-18 03:22:00,13.0,-99.9,30.35,WNW,290,7.0,14.0,-999,-99.99,,,-99.99,,2013-01-18 09:22:00,
2013-01-18 03:33:00,12.0,-99.9,30.34,West,280,3.0,14.0,-999,-99.99,,,-99.99,,2013-01-18 09:33:00,
2013-01-18 03:43:00,12.0,-99.9,30.34,West,280,3.0,14.0,-999,-99.99,,,-99.99,,2013-01-18 09:43:00,
2013-01-18 03:53:00,12.0,-99.9,30.34,West,280,3.0,14.0,-999,-99.99,,,-99.99,,2013-01-18 09:53:00,
2013-01-18 04:03:00,11.0,-99.9,30.33,West,260,5.0,10.0,-999,-99.99,,,-99.99,,2013-01-18 10:03:00,
2013-01-18 04:12:00,11.0,-99.9,30.33,West,260,5.0,10.0,-999,-99.99,,,-99.99,,2013-01-18 10:12:00,
2013-01-18 04:22:00,11.0,-99.9,30.33,West,260,5.0,10.0,-999,-99.99,,,-99.99,,2013-01-18 10:22:00,
2013-01-18 04:33:00,11.0,-99.9,30.33,WSW,250,1.0,10.0,-999,-99.99,,,-99.99,,2013-01-18 10:33:00,
2013-01-18 04:43:00,11.0,-99.9,30.33,WSW,250,1.0,10.0,-999,-99.99,,,-99.99,,2013-01-18 10:43:00,
2013-01-18 04:53:00,11.0,-99.9,30.33,WSW,250,1.0,10.0,-999,-99.99,,,-99.99,,2013-01-18 10:53:00,
2013-01-18 05:03:00,10.0,-99.9,30.32,South,170,3.0,5.0,-999,-99.99,,,-99.99,,2013-01-18 11:03:00,
2013-01-18 05:12:00,10.0,-99.9,30.32,South,170,3.0,5.0,-999,-99.99,,,-99.99,,2013-01-18 11:12:00,
2013-01-18 05:23:00,10.0,-99.9,30.32,South,170,3.0,5.0,-999,-99.99,,,-99.99,,2013-01-18 11:23:00,
2013-01-18 05:33:00,10.0,-99.9,30.31,South,180,2.0,8.0,-999,-99.99,,,-99.99,,2013-01-18 11:33:00,
2013-01-18 05:40:00,10.0,-99.9,30.29,South,170,2.0,5.0,-999,-99.99,,,-99.99,,2013-01-18 11:40:00,
2013-01-18 05:43:00,10.0,-99.9,30.31,South,180,2.0,8.0,-999,-99.99,,,-99.99,,2013-01-18 11:43:00,
2013-01-18 05:53:00,10.0,-99.9,30.31,South,180,2.0,8.0,-999,-99.99,,,-99.99,,2013-01-18 11:53:00,
2013-01-18 06:03:00,10.0,-99.9,30.29,South,170,2.0,5.0,-999,-99.99,,,-99.99,,2013-01-18 12:03:00,
2013-01-18 06:12:00,10.0,-99.9,30.29,South,170,2.0,5.0,-999,-99.99,,,-99.99,,2013-01-18 12:12:00,
2013-01-18 06:23:00,10.0,-99.9,30.29,South,170,2.0,5.0,-999,-99.99,,,-99.99,,2013-01-18 12:23:00,
2013-01-18 06:33:00,10.0,-99.9,30.29,South,170,2.0,5.0,-999,-99.99,,,-99.99,,2013-01-18 12:33:00,
2013-01-18 07:03:00,11.0,-99.9,30.27,SSW,200,1.0,5.0,-999,-99.99,,,-99.99,,2013-01-18 13:03:00,
2013-01-18 07:12:00,11.0,-99.9,30.27,SSW,200,1.0,5.0,-999,-99.99,,,-99.99,,2013-01-18 13:12:00,
2013-01-18 07:23:00,11.0,-99.9,30.27,SSW,200,1.0,5.0,-999,-99.99,,,-99.99,,2013-01-18 13:23:00,
2013-01-18 07:34:00,11.0,-99.9,30.27,SSW,200,1.0,5.0,-999,-99.99,,,-99.99,,2013-01-18 13:34:00,
2013-01-18 07:43:00,11.0,-99.9,30.26,SSE,160,2.0,7.0,-999,-99.99,,,-99.99,,2013-01-18 13:43:00,
2013-01-18 07:53:00,11.0,-99.9,30.26,SSE,160,2.0,7.0,-999,-99.99,,,-99.99,,2013-01-18 13:53:00,
2013-01-18 08:03:00,11.0,-99.9,30.26,South,180,6.0,11.0,-999,-99.99,,,-99.99,,2013-01-18 14:03:00,
2013-01-18 08:13:00,11.0,-99.9,30.26,South,180,6.0,11.0,-999,-99.99,,,-99.99,,2013-01-18 14:13:00,
2013-01-18 08:23:00,11.0,-99.9,30.26,South,180,6.0,11.0,-999,-99.99,,,-99.99,,2013-01-18 14:23:00,
2013-01-18 08:34:00,11.0,-99.9,30.26,South,180,6.0,11.0,-999,-99.99,,,-99.99,,2013-01-18 14:34:00,
2013-01-18 08:43:00,12.0,-99.9,30.23,South,190,2.0,13.0,-999,-99.99,,,-99.99,,2013-01-18 14:43:00,
2013-01-18 08:53:00,12.0,-99.9,30.23,South,190,2.0,13.0,-999,-99.99,,,-99.99,,2013-01-18 14:53:00,
2013-01-18 09:03:00,12.0,-99.9,30.22,South,180,6.0,11.0,-999,-99.99,,,-99.99,,2013-01-18 15:03:00,
2013-01-18 09:13:00,12.0,-99.9,30.22,South,180,6.0,11.0,-999,-99.99,,,-99.99,,2013-01-18 15:13:00,
2013-01-18 09:23:00,12.0,-99.9,30.22,South,180,6.0,11.0,-999,-99.99,,,-99.99,,2013-01-18 15:23:00,
2013-01-18 09:34:00,12.0,-99.9,30.19,SSE,160,5.0,11.0,-999,-99.99,,,-99.99,,2013-01-18 15:34:00,
2013-01-18 09:40:00,13.0,-99.9,30.16,SSE,160,2.0,5.0,-999,-99.99,,,-99.99,,2013-01-18 15:40:00,
2013-01-18 09:44:00,12.0,-99.9,30.19,SSE,160,5.0,11.0,-999,-99.99,,,-99.99,,2013-01-18 15:44:00,
2013-01-18 09:54:00,12.0,-99.9,30.19,SSE,160,5.0,11.0,-999,-99.99,,,-99.99,,2013-01-18 15:54:00,
2013-01-18 10:03:00,13.0,-99.9,30.16,SSE,160,2.0,5.0,-999,-99.99,,,-99.99,,2013-01-18 16:03:00,
2013-01-18 10:13:00,13.0,-99.9,30.16,SSE,160,2.0,5.0,-999,-99.99,,,-99.99,,2013-01-18 16:13:00,
2013-01-18 10:23:00,13.0,-99.9,30.16,SSE,160,2.0,5.0,-999,-99.99,,,-99.99,,2013-01-18 16:23:00,
2013-01-18 10:33:00,13.0,-99.9,30.16,SSE,160,2.0,5.0,-999,-99.99,,,-99.99,,2013-01-18 16:33:00,
2013-01-18 10:53:00,15.0,-99.9,30.11,SSE,150,3.0,8.0,-999,-99.99,,,-99.99,,2013-01-18 16:53:00,
2013-01-18 11:03:00,17.0,-99.9,30.07,North,0,0.0,5.0,-999,-99.99,,,-99.99,,2013-01-18 17:03:00,
2013-01-18 11:13:00,17.0,-99.9,30.07,North,0,0.0,5.0,-999,-99.99,,,-99.99,,2013-01-18 17:13:00,
2013-01-18 11:23:00,17.0,-99.9,30.07,North,0,0.0,5.0,-999,-99.99,,,-99.99,,2013-01-18 17:23:00,
2013-01-18 11:34:00,22.0,-99.9,29.99,SSE,150,10.0,16.0,-999,-99.99,,,-99.99,,2013-01-18 17:34:00,
2013-01-18 11:43:00,22.0,-99.9,29.99,SSE,150,10.0,16.0,-999,-99.99,,,-99.99,,2013-01-18 17:43:00,
2013-01-18 11:53:00,22.0,-99.9,29.99,SSE,150,10.0,16.0,-999,-99.99,,,-99.99,,2013-01-18 17:53:00,
2013-01-18 12:04:00,27.0,-99.9,29.96,SSE,160,11.0,17.0,-999,-99.99,,,-99.99,,2013-01-18 18:04:00,
2013-01-18 12:13:00,27.0,-99.9,29.96,SSE,160,11.0,17.0,-999,-99.99,,,-99.99,,2013-01-18 18:13:00,
2013-01-18 12:24:00,27.0,-99.9,29.96,SSE,160,11.0,17.0,-999,-99.99,,,-99.99,,2013-01-18 18:24:00,
2013-01-18 12:34:00,30.0,-99.9,29.93,South,180,6.0,24.0,-999,-99.99,,,-99.99,,2013-01-18 18:34:00,
2013-01-18 12:40:00,31.0,-99.9,29.90,South,180,6.0,13.0,-999,-99.99,,,-99.99,,2013-01-18 18:40:00,
2013-01-18 12:44:00,30.0,-99.9,29.93,South,180,6.0,24.0,-999,-99.99,,,-99.99,,2013-01-18 18:44:00,
2013-01-18 12:53:00,30.0,-99.9,29.93,South,180,6.0,24.0,-999,-99.99,,,-99.99,,2013-01-18 18:53:00,
2013-01-18 13:03:00,31.0,-99.9,29.90,South,180,6.0,13.0,-999,-99.99,,,-99.99,,2013-01-18 19:03:00,
2013-01-18 13:13:00,31.0,-99.9,29.90,South,180,6.0,13.0,-999,-99.99,,,-99.99,,2013-01-18 19:13:00,
2013-01-18 13:23:00,31.0,-99.9,29.90,South,180,6.0,13.0,-999,-99.99,,,-99.99,,2013-01-18 19:23:00,
2013-01-18 13:33:00,31.0,-99.9,29.90,South,180,6.0,13.0,-999,-99.99,,,-99.99,,2013-01-18 19:33:00,
2013-01-18 13:40:00,27.0,-99.9,29.88,WNW,300,7.0,9.0,-999,-99.99,,,-99.99,,2013-01-18 19:40:00,
2013-01-18 14:03:00,27.0,-99.9,29.88,WNW,300,7.0,9.0,-999,-99.99,,,-99.99,,2013-01-18 20:03:00,
2013-01-18 14:13:00,27.0,-99.9,29.88,WNW,300,7.0,9.0,-999,-99.99,,,-99.99,,2013-01-18 20:13:00,
2013-01-18 14:23:00,27.0,-99.9,29.88,WNW,300,7.0,9.0,-999,-99.99,,,-99.99,,2013-01-18 20:23:00,
2013-01-18 14:34:00,27.0,-99.9,29.88,WNW,300,7.0,9.0,-999,-99.99,,,-99.99,,2013-01-18 20:34:00,
2013-01-18 14:40:00,27.0,-99.9,29.85,NW,320,2.0,6.0,-999,-99.99,,,-99.99,,2013-01-18 20:40:00,
2013-01-18 15:03:00,27.0,-99.9,29.85,NW,320,2.0,6.0,-999,-99.99,,,-99.99,,2013-01-18 21:03:00,
2013-01-18 15:13:00,27.0,-99.9,29.85,NW,320,2.0,6.0,-999,-99.99,,,-99.99,,2013-01-18 21:13:00,
2013-01-18 15:23:00,27.0,-99.9,29.85,NW,320,2.0,6.0,-999,-99.99,,,-99.99,,2013-01-18 21:23:00,
2013-01-18 15:33:00,27.0,-99.9,29.85,NW,320,2.0,6.0,-999,-99.99,,,-99.99,,2013-01-18 21:33:00,
2013-01-18 15:40:00,28.0,-99.9,29.83,WNW,300,3.0,6.0,-999,-99.99,,,-99.99,,2013-01-18 21:40:00,
2013-01-18 15:53:00,28.0,-99.9,29.83,NNW,330,5.0,6.0,-999,-99.99,,,-99.99,,2013-01-18 21:53:00,
2013-01-18 16:03:00,28.0,-99.9,29.83,WNW,300,3.0,6.0,-999,-99.99,,,-99.99,,2013-01-18 22:03:00,
2013-01-18 16:12:00,28.0,-99.9,29.83,WNW,300,3.0,6.0,-999,-99.99,,,-99.99,,2013-01-18 22:12:00,
2013-01-18 16:23:00,28.0,-99.9,29.83,WNW,300,3.0,6.0,-999,-99.99,,,-99.99,,2013-01-18 22:23:00,
2013-01-18 16:33:00,28.0,-99.9,29.83,WNW,300,3.0,6.0,-999,-99.99,,,-99.99,,2013-01-18 22:33:00,
2013-01-18 16:40:00,27.0,-99.9,29.80,North,0,0.0,3.0,-999,-99.99,,,-99.99,,2013-01-18 22:40:00,
2013-01-18 17:03:00,27.0,-99.9,29.80,North,0,0.0,3.0,-999,-99.99,,,-99.99,,2013-01-18 23:03:00,
2013-01-18 17:12:00,27.0,-99.9,29.80,North,0,0.0,3.0,-999,-99.99,,,-99.99,,2013-01-18 23:12:00,
2013-01-18 17:23:00,27.0,-99.9,29.80,North,0,0.0,3.0,-999,-99.99,,,-99.99,,2013-01-18 23:23:00,
2013-01-18 17:33:00,27.0,-99.9,29.80,North,0,0.0,3.0,-999,-99.99,,,-99.99,,2013-01-18 23:33:00,
2013-01-18 17:40:00,27.0,-99.9,29.79,NW,310,2.0,3.0,-999,-99.99,,,-99.99,,2013-01-18 23:40:00,
2013-01-18 18:03:00,27.0,-99.9,29.79,NW,310,2.0,3.0,-999,-99.99,,,-99.99,,2013-01-19 00:03:00,
2013-01-18 18:13:00,27.0,-99.9,29.79,NW,310,2.0,3.0,-999,-99.99,,,-99.99,,2013-01-19 00:13:00,
2013-01-18 18:23:00,27.0,-99.9,29.79,NW,310,2.0,3.0,-999,-99.99,,,-99.99,,2013-01-19 00:23:00,
2013-01-18 18:33:00,27.0,-99.9,29.79,NW,310,2.0,3.0,-999,-99.99,,,-99.99,,2013-01-19 00:33:00,
2013-01-18 18:40:00,27.0,-99.9,29.78,WNW,300,2.0,3.0,-999,-99.99,,,-99.99,,2013-01-19 00:40:00,
2013-01-18 18:53:00,27.0,-99.9,29.77,North,0,0.0,3.0,-999,-99.99,,,-99.99,,2013-01-19 00:53:00,
2013-01-18 19:03:00,27.0,-99.9,29.78,WNW,300,2.0,3.0,-999,-99.99,,,-99.99,,2013-01-19 01:03:00,
2013-01-18 19:13:00,27.0,-99.9,29.78,WNW,300,2.0,3.0,-999,-99.99,,,-99.99,,2013-01-19 01:13:00,
2013-01-18 19:23:00,27.0,-99.9,29.78,WNW,300,2.0,3.0,-999,-99.99,,,-99.99,,2013-01-19 01:23:00,
2013-01-18 19:33:00,27.0,-99.9,29.78,WNW,300,2.0,3.0,-999,-99.99,,,-99.99,,2013-01-19 01:33:00,
2013-01-18 19:40:00,28.0,-99.9,29.77,NNW,330,6.0,9.0,-999,-99.99,,,-99.99,,2013-01-19 01:40:00,
2013-01-18 20:03:00,28.0,-99.9,29.77,NNW,330,6.0,9.0,-999,-99.99,,,-99.99,,2013-01-19 02:03:00,
2013-01-18 20:12:00,28.0,-99.9,29.77,NNW,330,6.0,9.0,-999,-99.99,,,-99.99,,2013-01-19 02:12:00,
2013-01-18 20:23:00,28.0,-99.9,29.77,NNW,330,6.0,9.0,-999,-99.99,,,-99.99,,2013-01-19 02:23:00,
2013-01-18 20:33:00,28.0,-99.9,29.77,NNW,330,6.0,9.0,-999,-99.99,,,-99.99,,2013-01-19 02:33:00,
2013-01-18 20:40:00,28.0,-99.9,29.74,NNW,340,8.0,9.0,-999,-99.99,,,-99.99,,2013-01-19 02:40:00,
2013-01-18 21:03:00,28.0,-99.9,29.74,NNW,340,8.0,9.0,-999,-99.99,,,-99.99,,2013-01-19 03:03:00,
2013-01-18 21:12:00,28.0,-99.9,29.74,NNW,340,8.0,9.0,-999,-99.99,,,-99.99,,2013-01-19 03:12:00,
2013-01-18 21:23:00,28.0,-99.9,29.74,NNW,340,8.0,9.0,-999,-99.99,,,-99.99,,2013-01-19 03:23:00,
2013-01-18 21:33:00,28.0,-99.9,29.74,NNW,340,8.0,9.0,-999,-99.99,,,-99.99,,2013-01-19 03:33:00,
2013-01-18 21:40:00,27.0,-99.9,29.74,North,350,10.0,11.0,-999,-99.99,,,-99.99,,2013-01-19 03:40:00,
2013-01-18 22:03:00,27.0,-99.9,29.74,North,350,10.0,11.0,-999,-99.99,,,-99.99,,2013-01-19 04:03:00,
2013-01-18 22:12:00,27.0,-99.9,29.74,North,350,10.0,11.0,-999,-99.99,,,-99.99,,2013-01-19 04:12:00,
2013-01-18 22:22:00,27.0,-99.9,29.74,North,350,10.0,11.0,-999,-99.99,,,-99.99,,2013-01-19 04:22:00,
2013-01-18 22:33:00,27.0,-99.9,29.74,North,350,10.0,11.0,-999,-99.99,,,-99.99,,2013-01-19 04:33:00,
2013-01-18 22:40:00,26.0,-99.9,29.73,NNW,340,9.0,13.0,-999,-99.99,,,-99.99,,2013-01-19 04:40:00,
2013-01-18 23:04:00,26.0,-99.9,29.73,NNW,340,9.0,13.0,-999,-99.99,,,-99.99,,2013-01-19 05:04:00,
2013-01-18 23:13:00,26.0,-99.9,29.73,NNW,340,9.0,13.0,-999,-99.99,,,-99.99,,2013-01-19 05:13:00,
2013-01-18 23:23:00,26.0,-99.9,29.73,NNW,340,9.0,13.0,-999,-99.99,,,-99.99,,2013-01-19 05:23:00,
2013-01-18 23:33:00,26.0,-99.9,29.73,NNW,340,9.0,13.0,-999,-99.99,,,-99.99,,2013-01-19 05:33:00,
2013-01-18 23:40:00,26.0,-99.9,29.74,NNW,340,10.0,11.0,-999,-99.99,,,-99.99,,2013-01-19 05:40:00,